Hampton, VA

4:02 AM EDT on August 30, 2016 (GMT -0400)
Langley Air Force Base

Weather History for KLFI - November, 2013

Change the Weather History Date:

Monday, November 4, 2013

  Actual Average Record
Temperature  
Mean Temperature 46 °F -  
Max Temperature 50 °F 64 °F 82 °F (1974)
Min Temperature 43 °F 48 °F 30 °F (1966)
Degree Days  
Heating Degree Days 18    
Moisture  
Dew Point 37 °F    
Average Humidity 67    
Maximum Humidity 90    
Minimum Humidity 51    
Precipitation  
Precipitation 0.00 in - - ()
Sea Level Pressure  
Sea Level Pressure 30.55 in    
Wind  
Wind Speed 16 mph (NNE)    
Max Wind Speed 22 mph    
Max Gust Speed 28 mph    
Visibility 10 miles    
Events      
Averages and records for this station are not official NWS values.
T = Trace of Precipitation, MM = Missing Value Source: NWS Daily Summary

Daily Weather History Graph

Daily Weather History Graph

Search for Another Location

Airport or City:

Trip Planner

Search our weather history database for the weather conditions in past years. The results will help you decide how hot, cold, wet, or windy it might be!

Date:

Astronomy

Nov. 04, 2013 Rise Set
Actual Time 6:32 AM EST 5:04 PM EST
Civil Twilight 6:05 AM EST 5:31 PM EST
Nautical Twilight 5:34 AM EST 6:02 PM EST
Astronomical Twilight 5:04 AM EST 6:32 PM EST
Moon 7:39 AM EST (11/4) 6:08 PM EST (11/4)
Length of Visible Light 11h 25m
Length of Day
10h 31m
New Moon, 2% of the Moon is Illuminated
Nov 4
New Moon
Nov 10
First Quarter
Nov 17
Full
Nov 25
Last Quarter
Dec 2
New

Hourly Weather History & Observations

Time (EST) Temp. Windchill Dew Point Humidity Pressure Visibility Wind Dir Wind Speed Gust Speed Precip Events Conditions
12:58 AM 48.2 °F - 30.7 °F 51% 30.42 in 10.0 mi NE 13.8 mph - N/A   Clear
1:58 AM 48.9 °F - 32.9 °F 54% 30.43 in 10.0 mi NE 18.4 mph - N/A   Clear
2:58 AM 48.0 °F - 39.0 °F 71% 30.46 in 10.0 mi NNE 19.6 mph - N/A   Clear
3:58 AM 45.9 °F 39.1 °F 34.0 °F 63% 30.49 in 10.0 mi NNE 16.1 mph 27.6 mph N/A   Clear
4:58 AM 44.6 °F 36.9 °F 34.9 °F 69% 30.51 in 10.0 mi NNE 18.4 mph - N/A   Clear
5:58 AM 43.9 °F 35.4 °F 33.6 °F 67% 30.50 in 10.0 mi NNE 20.7 mph - N/A   Clear
6:58 AM 43.5 °F 35.2 °F 33.3 °F 67% 30.54 in 10.0 mi NNE 19.6 mph 25.3 mph N/A   Clear
7:58 AM 44.8 °F 36.4 °F 33.8 °F 65% 30.54 in 10.0 mi NNE 21.9 mph 25.3 mph N/A   Clear
8:58 AM 46.4 °F 39.8 °F 33.6 °F 61% 30.57 in 10.0 mi North 16.1 mph 24.2 mph N/A   Clear
9:58 AM 47.8 °F - 34.3 °F 60% 30.58 in 10.0 mi North 16.1 mph - N/A   Partly Cloudy
10:28 AM 48.2 °F - 37.4 °F 66% 30.57 in 10.0 mi North 13.8 mph - N/A   Mostly Cloudy
10:58 AM 48.7 °F - 37.8 °F 66% 30.59 in 10.0 mi North 16.1 mph - N/A   Mostly Cloudy
11:08 AM 48.2 °F - 37.4 °F 66% 30.57 in 10.0 mi North 12.7 mph 20.7 mph N/A   Scattered Clouds
11:18 AM 48.2 °F - 37.4 °F 66% 30.57 in 10.0 mi North 15.0 mph 21.9 mph N/A   Mostly Cloudy
11:58 AM 48.9 °F - 38.3 °F 67% 30.58 in 10.0 mi NNE 15.0 mph - N/A   Overcast
12:58 PM 50.2 °F - 39.6 °F 67% 30.56 in 10.0 mi North 16.1 mph - N/A   Mostly Cloudy
1:18 PM 50.0 °F - 39.2 °F 66% 30.54 in 10.0 mi North 12.7 mph - N/A   Mostly Cloudy
1:28 PM 50.0 °F - 39.2 °F 66% 30.54 in 10.0 mi NNE 16.1 mph 20.7 mph N/A   Mostly Cloudy
1:38 PM 50.0 °F - 39.2 °F 66% 30.54 in 10.0 mi North 16.1 mph - N/A   Scattered Clouds
1:58 PM 50.2 °F - 38.8 °F 65% 30.57 in 10.0 mi North 13.8 mph - N/A   Scattered Clouds
2:10 PM 50.0 °F - 39.2 °F 66% 30.54 in 10.0 mi North 13.8 mph - N/A   Mostly Cloudy
2:58 PM 50.5 °F - 37.9 °F 62% 30.57 in 10.0 mi North 15.0 mph 20.7 mph N/A   Clear
3:58 PM 49.1 °F - 37.0 °F 63% 30.57 in 10.0 mi North 15.0 mph - N/A   Partly Cloudy
4:58 PM 47.7 °F - 36.1 °F 64% 30.57 in 10.0 mi North 12.7 mph - N/A   Scattered Clouds
5:58 PM 47.5 °F - 34.9 °F 62% 30.58 in 10.0 mi North 10.4 mph - N/A   Mostly Cloudy
6:58 PM 48.6 °F - 36.7 °F 64% 30.58 in 10.0 mi NNE 12.7 mph - N/A   Overcast
7:58 PM 46.9 °F - 37.2 °F 69% 30.58 in 10.0 mi NNE 13.8 mph - N/A   Mostly Cloudy
8:58 PM 49.6 °F - 41.7 °F 74% 30.58 in 10.0 mi NNE 12.7 mph - N/A   Overcast
9:58 PM 49.6 °F - 44.1 °F 81% 30.59 in 10.0 mi NNE 12.7 mph - N/A   Scattered Clouds
10:58 PM 48.7 °F - 43.7 °F 83% 30.58 in 10.0 mi NNE 10.4 mph - N/A   Overcast
11:58 PM 48.9 °F - 46.0 °F 90% 30.58 in 10.0 mi North 11.5 mph - N/A   Overcast